Weather History for 78774 - September, 2013

Change the Weather History Date:

Saturday, September 28, 2013

  Actual Average Record
Temperature  
Mean Temperature 79 °F -  
Max Temperature 87 °F 84 °F - ()
Min Temperature 71 °F 73 °F - ()
Cooling Degree Days 14    
Growing Degree Days 29 (Base 50)    
Moisture  
Dew Point 73 °F    
Average Humidity 73    
Maximum Humidity 89    
Minimum Humidity 54    
Precipitation  
Precipitation 0.00 in - - ()
Sea Level Pressure  
Sea Level Pressure 29.88 in    
Wind  
Wind Speed 4 mph ()    
Max Wind Speed 12 mph    
Max Gust Speed -    
Visibility 7.8 miles    
Events      
T = Trace of Precipitation, MM = Missing Value Source: Averaged Metar Reports

Daily Weather History Graph

Daily Weather History Graph

Search for Another Location

Airport or City:

Trip Planner

Search our weather history database for the weather conditions in past years. The results will help you decide how hot, cold, wet, or windy it might be!

Date:

Astronomy

Sep. 28, 2013 Rise Set
Actual Time 5:31 AM CST 5:34 PM CST
Civil Twilight 5:10 AM CST 5:55 PM CST
Nautical Twilight 4:45 AM CST 6:19 PM CST
Astronomical Twilight 4:21 AM CST 6:44 PM CST
Moon 12:12 AM CST (9/28) 1:01 PM CST (9/28)
Length of Visible Light 12h 45m
Length of Day
12h 03m
Waning Crescent, 35% of the Moon is Illuminated
Sep 28
Waning Crescent
Oct 4
New
Oct 11
First Quarter
Oct 18
Full
Oct 26
Last Quarter

Hourly Weather History & Observations

Time (CST) Temp. Heat Index Dew Point Humidity Pressure Visibility Wind Dir Wind Speed Gust Speed Precip Events Conditions
6:00 AM 73 °F - 70 °F 87% 29.89 in 12 mi Calm Calm - -   Scattered Clouds
6:00 AM 73.4 °F - 69.8 °F 88% 29.88 in - Calm Calm - N/A   Clear
7:00 AM 77.0 °F - 71.6 °F 83% 29.89 in - NNE 4.6 mph - N/A   Clear
8:00 AM 80.6 °F 85.4 °F 73.4 °F 79% 29.92 in 6.2 mi NNW 2.3 mph - N/A   Scattered Clouds
9:00 AM 83 °F - 73 °F 65% 29.94 in 12 mi NW 3.5 mph - -   Partly Cloudy
9:00 AM 82.4 °F 88.2 °F 73.4 °F 74% 29.92 in 6.2 mi NW 3.5 mph - N/A   Mostly Cloudy
10:00 AM 84.2 °F 90.9 °F 73.4 °F 70% 29.93 in 6.2 mi West 5.8 mph - N/A   Scattered Clouds
11:00 AM 86.0 °F 91.8 °F 71.6 °F 62% 29.91 in 6.2 mi WNW 6.9 mph - N/A   Scattered Clouds
12:00 PM 86 °F - 72 °F 54% 29.91 in 12 mi West 6.9 mph - -   Partly Cloudy
12:00 PM 86.0 °F 91.8 °F 71.6 °F 62% 29.89 in 6.2 mi West 6.9 mph - N/A   Scattered Clouds
1:00 PM 86.0 °F 91.8 °F 71.6 °F 62% 29.86 in 6.2 mi WNW 10.4 mph - N/A   Scattered Clouds
2:00 PM 86.0 °F 93.4 °F 73.4 °F 66% 29.83 in 6.2 mi West 11.5 mph - N/A   Mostly Cloudy
3:00 PM 86 °F - 74 °F 60% 29.83 in 12 mi West 9.2 mph - -   Overcast
3:00 PM 86.0 °F 93.4 °F 73.4 °F 66% 29.81 in 6.2 mi West 9.2 mph - N/A   Mostly Cloudy
4:00 PM 84.2 °F 90.9 °F 73.4 °F 70% 29.81 in 6.2 mi West 6.9 mph - N/A   Mostly Cloudy
5:00 PM 82.4 °F 88.2 °F 73.4 °F 74% 29.83 in 6.2 mi West 9.2 mph - N/A   Mostly Cloudy
6:00 PM 81 °F - 74 °F 73% 29.87 in 12 mi West 4.6 mph - -   Overcast
6:00 PM 80.6 °F 85.4 °F 73.4 °F 79% 29.85 in 6.2 mi West 4.6 mph - N/A   Mostly Cloudy
7:00 PM 78.8 °F - 75.2 °F 89% 29.90 in 6.2 mi West 3.5 mph - N/A   Mostly Cloudy
8:00 PM 77.0 °F - 73.4 °F 89% 29.92 in 6.2 mi SSE 4.6 mph - N/A   Mostly Cloudy